Location: Plainartige
(45.6866°N, 1.7993°E)
Time: 14:29:32
(UTC+00:00)

Meteor 2-4 Rocket - Pass Details

Date: 03 March 2021
Orbit: 799 x 908 km, 81.2° (Epoch: 11 April)

Event Time Altitude Azimuth Distance (km) Brightness Sun altitude
Rises 18:45:51 0° 351° (N) 3,488 7.1 -11.9°
Reaches altitude 10° 18:48:19 10° 355° (N) 2,559 6.3 -12.3°
Maximum altitude 18:54:07 62° 76° (ENE) 1,006 3.8 -13.3°
Drops below altitude 10° 18:59:58 10° 157° (SSE) 2,583 6.0 -14.3°
Sets 19:02:28 0° 161° (SSE) 3,522 6.7 -14.7°
